Zurück zum Katalog

THORAD AGENA D DEB

AktivPO
NORAD 42497·DEBRIS·🇺🇸 United States

Gestartet Apr 8, 1970 von Vandenberg Space Force Base

Loading…

Nächste Überflüge (nächste 24 Stunden)

TLE

AktuellSource: Space-Track

Epoche: Sep 14, 2026, 21:04 UTC

1 42497U 70025RB  26257.87786836  .00001194  00000-0  83970-3 0  9990
2 42497  99.9856 147.3418 0031856 278.6346  81.1207 14.00228423650636

Verfolge THORAD AGENA D DEB in Echtzeit mit AllMySat

Download on the App Store